Simultaneous Nadir Overpasses (SNOs) Predictions

Prediction of SNOs near equator between NOAA-19 and NPP Satellite Orbit:

Table of predicted SNOs near equator for the next 14.0 days since TLE Epoch: 11/3/2012
Index Date (NOAA-19) Time (NOAA-19) NOAA-19 Lat,Lon Date (NPP) Time (NPP) NPP Lat,Lon Distance(km) Time Diff (sec)
1 11/04/2012 00:29:42 29.94,-169.07 11/04/2012 00:23:16 29.75,-170.07 99.11 386
2 11/04/2012 01:20:45 -29.96, -1.84 11/04/2012 01:13:58 -29.78, -2.75 90.80 407
3 11/04/2012 02:11:47 29.95, 165.41 11/04/2012 02:04:46 29.76, 164.55 85.44 421
4 11/04/2012 03:02:50 -29.97, -27.36 11/04/2012 02:55:28 -29.79, -28.13 77.14 442
5 11/04/2012 03:53:52 29.95, 139.89 11/04/2012 03:46:17 29.82, 139.16 71.76 455
6 11/04/2012 04:44:55 -29.97, -52.88 11/04/2012 04:36:59 -29.85, -53.52 63.44 476
7 11/04/2012 05:35:57 29.95, 114.37 11/04/2012 05:27:47 29.82, 113.78 58.07 490
8 11/04/2012 06:27:00 -29.97, -78.40 11/04/2012 06:18:29 -29.85, -78.90 49.78 511
9 11/04/2012 07:18:02 29.95, 88.85 11/04/2012 07:09:18 29.88, 88.39 44.46 524
10 11/04/2012 08:09:05 -29.97,-103.92 11/04/2012 08:00:00 -29.91,-104.29 36.14 545
11 11/04/2012 09:00:07 29.96, 63.33 11/04/2012 08:50:48 29.89, 63.02 30.72 559
12 11/04/2012 09:51:10 -29.97,-129.44 11/04/2012 09:41:30 -29.92,-129.66 22.43 580
13 11/04/2012 10:42:12 29.96, 37.80 11/04/2012 10:32:19 29.95, 37.63 17.32 593
14 11/04/2012 11:26:04 -4.94,-148.79 11/04/2012 11:16:04 -5.55,-149.11 77.10 600
15 11/16/2012 09:22:59 -29.97,-122.35 11/16/2012 09:16:10 -29.79,-123.30 93.84 409
16 11/16/2012 10:14:00 30.00, 44.89 11/16/2012 10:06:59 29.84, 43.98 89.03 421
17 11/16/2012 11:05:04 -29.98,-147.87 11/16/2012 10:57:40 -29.80,-148.68 80.16 444
18 11/16/2012 11:56:04 29.95, 19.38 11/16/2012 11:48:28 29.79, 18.62 75.39 456
19 11/16/2012 12:47:09 -29.98,-173.40 11/16/2012 12:39:11 -29.86,-174.07 66.52 478
20 11/16/2012 13:38:09 29.95, -6.14 11/16/2012 13:29:59 29.85, -6.77 61.79 490
21 11/16/2012 14:29:14 -29.99, 161.08 11/16/2012 14:20:41 -29.87, 160.55 52.84 513
22 11/16/2012 15:20:14 29.96, -31.66 11/16/2012 15:11:29 29.85, -32.15 48.06 525
23 11/16/2012 16:11:18 -29.99, 135.56 11/16/2012 16:02:12 -29.93, 135.16 39.23 547
24 11/16/2012 17:02:18 29.9
